{"data":{"norad_id":59280,"intl_designator":"2024-052A","name":"YUNHAI-2 02A","alt_names":[],"object_type":"PAYLOAD","status":"ACTIVE","operator":null,"country":"PRC","launch_date":"2024-03-21","launch_site_code":"JSC","launch_vehicle":null,"mission":null,"orbit_class":"UNKNOWN","rcs_meters":null,"size_class":null,"mass_kg":null,"dimensions":null,"purposes":[],"wikipedia_slug":null,"has_3d_model":false,"image_url":null,"decayed_at":null,"tle_current":{"epoch":"2026-09-22T22:31:21.450144Z","epoch_age_seconds":49903,"freshness":"FRESH","line1":"1 59280U 24052A   26265.93844271  .00000008  00000+0  67763-4 0  9996","line2":"2 59280  50.0108  28.4549 0011823 129.4457 230.7506 14.27988209112196","mean_motion":14.27988209,"eccentricity":0.0011823,"inclination_deg":50.0108,"raan_deg":28.4549,"arg_perigee_deg":129.4457,"mean_anomaly_deg":230.7506,"bstar":6.7763e-5,"rev_number":11219,"period_min":100.84116878027,"perigee_km":789.97842911545,"apogee_km":806.94821824082,"semimajor_km":7176.6003236781,"source":"CELESTRAK","updated_at":"2026-09-23T09:00:19.283471Z"}}}